Weather History for KEGE - December, 2012

Change the Weather History Date:

Wednesday, December 5, 2012

  Actual Average Record
Temperature  
Mean Temperature 37 °F -  
Max Temperature 53 °F 38 °F 54 °F (1949)
Min Temperature 21 °F 11 °F -16 °F (1952)
Degree Days  
Heating Degree Days 28    
Moisture  
Dew Point 23 °F    
Average Humidity 74    
Maximum Humidity 93    
Minimum Humidity 28    
Precipitation  
Precipitation 0.00 in - - ()
Sea Level Pressure  
Sea Level Pressure 30.22 in    
Wind  
Wind Speed 2 mph (ESE)    
Max Wind Speed 18 mph    
Max Gust Speed 28 mph    
Visibility 10 miles    
Events      
Averages and records for this station are not official NWS values.
T = Trace of Precipitation, MM = Missing Value Source: NWS Daily Summary

Daily Weather History Graph

Daily Weather History Graph

Search for Another Location

Airport or City:

Trip Planner

Search our weather history database for the weather conditions in past years. The results will help you decide how hot, cold, wet, or windy it might be!

Date:

Astronomy

Dec. 05, 2012 Rise Set
Actual Time 7:13 AM MST 4:43 PM MST
Civil Twilight 6:43 AM MST 5:13 PM MST
Nautical Twilight 6:10 AM MST 5:46 PM MST
Astronomical Twilight 5:37 AM MST 6:19 PM MST
Moon 11:34 PM MST 11:39 AM MST
Length of Visible Light 10h 29m
Length of Day
9h 29m
Waning Gibbous, 59% of the Moon is Illuminated
Dec 5
Waning Gibbous
Dec 6
Last Quarter
Dec 13
New
Dec 19
First Quarter
Dec 28
Full

Hourly Weather History & Observations

Time (MST) Temp. Windchill Dew Point Humidity Pressure Visibility Wind Dir Wind Speed Gust Speed Precip Events Conditions
12:15 AM 26.6 °F - 19.4 °F 74% 30.35 in 10.0 mi Calm Calm - N/A   Clear
12:35 AM 26.6 °F 21.2 °F 19.4 °F 74% 30.34 in 10.0 mi East 4.6 mph - N/A   Clear
12:55 AM 24.8 °F 16.9 °F 19.4 °F 80% 30.34 in 10.0 mi East 6.9 mph - N/A   Clear
1:15 AM 26.6 °F - 19.4 °F 74% 30.34 in 10.0 mi Calm Calm - N/A   Clear
1:55 AM 26.6 °F - 19.4 °F 74% 30.33 in 10.0 mi Calm Calm - N/A   Clear
2:15 AM 24.8 °F - 19.4 °F 80% 30.33 in 10.0 mi Calm Calm - N/A   Clear
2:35 AM 24.8 °F - 19.4 °F 80% 30.33 in 10.0 mi Calm Calm - N/A   Clear
2:55 AM 24.8 °F - 19.4 °F 80% 30.32 in 10.0 mi Calm Calm - N/A   Clear
3:15 AM 24.8 °F - 17.6 °F 74% 30.32 in 10.0 mi Calm Calm - N/A   Clear
3:35 AM 23.0 °F - 19.4 °F 86% 30.31 in 10.0 mi Calm Calm - N/A   Clear
3:55 AM 23.0 °F 18.4 °F 19.4 °F 86% 30.31 in 10.0 mi East 3.5 mph - N/A   Clear
4:15 AM 21.2 °F 13.6 °F 19.4 °F 93% 30.30 in 10.0 mi East 5.8 mph - N/A   Clear
4:35 AM 21.2 °F 14.9 °F 19.4 °F 93% 30.29 in 10.0 mi East 4.6 mph - N/A   Clear
4:55 AM 21.2 °F - 17.6 °F 86% 30.29 in 10.0 mi Calm Calm - N/A   Clear
5:15 AM 21.2 °F - 17.6 °F 86% 30.28 in 10.0 mi Calm Calm - N/A   Clear
5:35 AM 21.2 °F - 17.6 °F 86% 30.27 in 10.0 mi Calm Calm - N/A   Clear
5:55 AM 21.2 °F 16.4 °F 19.4 °F 93% 30.27 in 10.0 mi East 3.5 mph - N/A   Clear
7:50 AM 21.2 °F - 17.6 °F 86% 30.26 in 10.0 mi Calm Calm - N/A   Scattered Clouds
8:50 AM 26.6 °F - 19.4 °F 74% 30.25 in 10.0 mi Calm Calm - N/A   Scattered Clouds
9:50 AM 30.2 °F - 21.2 °F 69% 30.22 in 10.0 mi Calm Calm - N/A   Scattered Clouds
10:50 AM 33.8 °F - 19.4 °F 56% 30.19 in 10.0 mi Calm Calm - N/A   Scattered Clouds
11:50 AM 39.2 °F - 21.2 °F 49% 30.14 in 10.0 mi Calm Calm - N/A   Scattered Clouds
12:50 PM 46.4 °F - 21.2 °F 37% 30.09 in 10.0 mi Calm Calm - N/A   Scattered Clouds
2:50 PM 53.6 °F - 21.2 °F 28% 30.06 in 10.0 mi WSW 18.4 mph 27.6 mph N/A   Mostly Cloudy
3:55 PM 44.6 °F 38.4 °F 33.8 °F 66% 30.11 in 10.0 mi WSW 12.7 mph 20.7 mph N/A   Mostly Cloudy
5:50 PM 42.8 °F - 32.0 °F 66% 30.10 in 10.0 mi Calm Calm - N/A   Overcast
6:56 PM 41.0 °F 39.0 °F 30.2 °F 65% 30.10 in 10.0 mi West 3.5 mph - N/A   Partly Cloudy
7:55 PM 39.2 °F - 30.2 °F 70% 30.11 in 10.0 mi Calm Calm - N/A   Scattered Clouds
8:51 PM 39.2 °F 35.9 °F 30.2 °F 70% 30.09 in 10.0 mi NNE 4.6 mph - N/A   Overcast
9:55 PM 39.2 °F - 30.2 °F 70% 30.08 in 10.0 mi Calm Calm - N/A   Mostly Cloudy
10:50 PM 37.4 °F 34.9 °F 30.2 °F 75% 30.06 in 10.0 mi ESE 3.5 mph - N/A   Mostly Cloudy
11:15 PM 37.4 °F - 30.2 °F 75% 30.06 in 10.0 mi Calm Calm - N/A   Mostly Cloudy
11:35 PM 35.6 °F 32.8 °F 28.4 °F 75% 30.06 in 10.0 mi South 3.5 mph - N/A   Overcast
11:55 PM 35.6 °F - 30.2 °F 81% 30.07 in 10.0 mi Calm Calm - N/A   Overcast